Time,TemperatureF,DewpointF,PressureIn,WindDirection,WindDirectionDegrees,WindSpeedMPH,WindSpeedGustMPH,Humidity,HourlyPrecipIn,Conditions,Clouds,dailyrainin,SolarRadiationWatts/m^2,SoftwareType,DateUTC
2013-05-15 00:01:00,60.0,47.0,30.14,SSW,210,0.0,2.0,62,0.00,,---,0.00,0.00,VWS V14.01,2013-05-15 04:01:00,
2013-05-15 00:02:00,59.9,46.9,30.14,SSW,210,0.0,0.0,62,0.00,,---,0.00,0.00,VWS V14.01,2013-05-15 04:02:00,
2013-05-15 00:03:00,60.0,47.0,30.15,SSW,210,0.0,0.0,62,0.00,,---,0.00,0.00,VWS V14.01,2013-05-15 04:03:00,
2013-05-15 00:06:00,59.9,46.9,30.14,SSW,210,0.0,0.0,62,0.00,,---,0.00,0.00,VWS V14.01,2013-05-15 04:06:00,
2013-05-15 00:12:00,59.9,46.9,30.14,SSW,210,0.0,0.0,62,0.00,,---,0.00,0.00,VWS V14.01,2013-05-15 04:12:00,
2013-05-15 00:19:00,59.8,47.2,30.14,SSW,210,0.0,0.0,63,0.00,,---,0.00,0.00,VWS V14.01,2013-05-15 04:19:00,
2013-05-15 00:24:00,59.7,47.1,30.14,SSW,210,0.0,1.0,63,0.00,,---,0.00,0.00,VWS V14.01,2013-05-15 04:24:00,
2013-05-15 00:29:00,59.6,47.4,30.14,SSW,210,0.0,0.0,64,0.00,,---,0.00,0.00,VWS V14.01,2013-05-15 04:29:00,
2013-05-15 00:34:00,59.6,47.8,30.14,SSW,210,0.0,0.0,65,0.00,,---,0.00,0.00,VWS V14.01,2013-05-15 04:34:00,
2013-05-15 00:39:00,59.5,47.7,30.14,SSW,210,0.0,0.0,65,0.00,,---,0.00,0.00,VWS V14.01,2013-05-15 04:39:00,
2013-05-15 00:44:00,59.4,47.7,30.14,SSW,210,0.0,0.0,65,0.00,,---,0.00,0.00,VWS V14.01,2013-05-15 04:44:00,
2013-05-15 00:49:00,59.3,48.0,30.14,SSW,210,0.0,0.0,66,0.00,,---,0.00,0.00,VWS V14.01,2013-05-15 04:49:00,
2013-05-15 00:54:00,59.2,47.9,30.14,SSW,210,0.0,0.0,66,0.00,,---,0.00,0.00,VWS V14.01,2013-05-15 04:54:00,
2013-05-15 01:00:00,59.1,48.2,30.14,SSW,210,0.0,0.0,67,0.00,,---,0.00,0.00,VWS V14.01,2013-05-15 05:00:00,
2013-05-15 01:05:00,58.9,48.4,30.13,SSW,210,0.0,0.0,68,0.00,,---,0.00,0.00,VWS V14.01,2013-05-15 05:05:00,
2013-05-15 01:10:00,58.8,48.3,30.14,SSW,210,0.0,0.0,68,0.00,,---,0.00,0.00,VWS V14.01,2013-05-15 05:10:00,
2013-05-15 01:15:00,58.7,48.6,30.14,SSW,210,0.0,1.0,69,0.00,,---,0.00,0.00,VWS V14.01,2013-05-15 05:15:00,
2013-05-15 01:20:00,58.5,48.8,30.14,SSW,210,0.0,0.0,70,0.00,,---,0.00,0.00,VWS V14.01,2013-05-15 05:20:00,
2013-05-15 01:25:00,58.3,48.6,30.13,SSW,210,0.0,0.0,70,0.00,,---,0.00,0.00,VWS V14.01,2013-05-15 05:25:00,
2013-05-15 01:30:00,58.2,48.5,30.14,SSW,210,0.0,0.0,70,0.00,,---,0.00,0.00,VWS V14.01,2013-05-15 05:30:00,
2013-05-15 01:35:00,58.0,48.7,30.13,SSW,210,0.0,0.0,71,0.00,,---,0.00,0.00,VWS V14.01,2013-05-15 05:35:00,
2013-05-15 01:40:00,57.8,48.5,30.13,SSW,210,0.0,0.0,71,0.00,,---,0.00,0.00,VWS V14.01,2013-05-15 05:40:00,
2013-05-15 01:45:00,57.6,48.3,30.13,SSW,210,0.0,0.0,71,0.00,,---,0.00,0.00,VWS V14.01,2013-05-15 05:45:00,
2013-05-15 01:50:00,57.5,48.6,30.13,SSW,210,0.0,0.0,72,0.00,,---,0.00,0.00,VWS V14.01,2013-05-15 05:50:00,
2013-05-15 01:55:00,57.3,48.4,30.13,SSW,210,0.0,0.0,72,0.00,,---,0.00,0.00,VWS V14.01,2013-05-15 05:55:00,
2013-05-15 02:00:00,57.2,48.3,30.13,SSW,210,0.0,1.0,72,0.00,,---,0.00,0.00,VWS V14.01,2013-05-15 06:00:00,
2013-05-15 02:05:00,57.1,48.2,30.13,SSW,210,0.0,0.0,72,0.00,,---,0.00,0.00,VWS V14.01,2013-05-15 06:05:00,
2013-05-15 02:10:00,57.1,48.2,30.13,SSW,210,0.0,0.0,72,0.00,,---,0.00,0.00,VWS V14.01,2013-05-15 06:10:00,
2013-05-15 02:15:00,57.1,48.2,30.13,SSW,210,0.0,0.0,72,0.00,,---,0.00,0.00,VWS V14.01,2013-05-15 06:15:00,
2013-05-15 02:22:00,57.0,48.1,30.12,SSW,210,0.0,0.0,72,0.00,,---,0.00,0.00,VWS V14.01,2013-05-15 06:22:00,
2013-05-15 02:27:00,57.0,48.4,30.12,SSW,210,0.0,0.0,73,0.00,,---,0.00,0.00,VWS V14.01,2013-05-15 06:27:00,
2013-05-15 02:32:00,57.0,48.4,30.12,SSW,210,0.0,0.0,73,0.00,,---,0.00,0.00,VWS V14.01,2013-05-15 06:32:00,
2013-05-15 02:37:00,56.9,48.3,30.12,SSW,210,0.0,0.0,73,0.00,,---,0.00,0.00,VWS V14.01,2013-05-15 06:37:00,
2013-05-15 02:42:00,56.9,48.3,30.12,SSW,210,0.0,0.0,73,0.00,,---,0.00,0.00,VWS V14.01,2013-05-15 06:42:00,
2013-05-15 02:47:00,56.8,48.2,30.13,SSW,210,0.0,0.0,73,0.00,,---,0.00,0.00,VWS V14.01,2013-05-15 06:47:00,
2013-05-15 02:52:00,56.8,48.2,30.12,SSW,210,0.0,0.0,73,0.00,,---,0.00,0.00,VWS V14.01,2013-05-15 06:52:00,
2013-05-15 02:57:00,56.7,48.2,30.13,SSW,210,0.0,0.0,73,0.00,,---,0.00,0.00,VWS V14.01,2013-05-15 06:57:00,
2013-05-15 03:02:00,56.7,48.2,30.13,SSW,210,0.0,0.0,73,0.00,,---,0.00,0.00,VWS V14.01,2013-05-15 07:02:00,
2013-05-15 03:07:00,56.7,48.2,30.13,SSW,210,0.0,0.0,73,0.00,,---,0.00,0.00,VWS V14.01,2013-05-15 07:07:00,
2013-05-15 03:12:00,56.7,48.2,30.13,SSW,210,0.0,0.0,73,0.00,,---,0.00,0.00,VWS V14.01,2013-05-15 07:12:00,
2013-05-15 03:17:00,56.6,48.4,30.13,SSW,210,0.0,0.0,74,0.00,,---,0.00,0.00,VWS V14.01,2013-05-15 07:17:00,
2013-05-15 03:22:00,56.6,48.4,30.13,SSW,210,0.0,0.0,74,0.00,,---,0.00,0.00,VWS V14.01,2013-05-15 07:22:00,
2013-05-15 03:28:00,56.5,48.7,30.13,SSW,210,0.0,0.0,75,0.00,,---,0.00,0.00,VWS V14.01,2013-05-15 07:28:00,
2013-05-15 03:33:00,56.4,48.6,30.13,SSW,210,1.0,1.0,75,0.00,,---,0.00,0.00,VWS V14.01,2013-05-15 07:33:00,
2013-05-15 03:38:00,56.3,48.5,30.13,SSW,210,1.0,3.0,75,0.00,,---,0.00,0.00,VWS V14.01,2013-05-15 07:38:00,
2013-05-15 03:43:00,56.1,48.3,30.13,SSW,210,3.0,4.0,75,0.00,,---,0.00,0.00,VWS V14.01,2013-05-15 07:43:00,
2013-05-15 03:48:00,56.2,48.8,30.12,SSW,210,0.0,1.0,76,0.00,,---,0.00,0.00,VWS V14.01,2013-05-15 07:48:00,
2013-05-15 03:53:00,56.2,48.4,30.12,SSW,210,0.0,2.0,75,0.00,,---,0.00,0.00,VWS V14.01,2013-05-15 07:53:00,
2013-05-15 03:58:00,56.3,48.5,30.12,SSW,210,0.0,3.0,75,0.00,,---,0.00,0.00,VWS V14.01,2013-05-15 07:58:00,
2013-05-15 04:03:00,56.4,48.6,30.12,SSW,210,0.0,0.0,75,0.00,,---,0.00,0.00,VWS V14.01,2013-05-15 08:03:00,
2013-05-15 04:08:00,56.5,48.7,30.12,SSW,210,0.0,2.0,75,0.00,,---,0.00,0.00,VWS V14.01,2013-05-15 08:08:00,
2013-05-15 04:13:00,56.6,48.4,30.12,SSW,210,0.0,0.0,74,0.00,,---,0.00,0.00,VWS V14.01,2013-05-15 08:13:00,
2013-05-15 04:18:00,56.7,48.5,30.12,SSW,210,0.0,1.0,74,0.00,,---,0.00,0.00,VWS V14.01,2013-05-15 08:18:00,
2013-05-15 04:23:00,56.7,48.5,30.12,SSW,210,0.0,3.0,74,0.00,,---,0.00,0.00,VWS V14.01,2013-05-15 08:23:00,
2013-05-15 04:28:00,56.8,48.6,30.12,SSW,210,3.0,3.0,74,0.00,,---,0.00,0.00,VWS V14.01,2013-05-15 08:28:00,
2013-05-15 04:34:00,56.9,48.7,30.12,SSW,210,0.0,1.0,74,0.00,,---,0.00,0.00,VWS V14.01,2013-05-15 08:34:00,
2013-05-15 04:39:00,56.9,48.3,30.12,SSW,210,2.0,2.0,73,0.00,,---,0.00,0.00,VWS V14.01,2013-05-15 08:39:00,
2013-05-15 04:44:00,57.0,48.8,30.12,SSW,210,1.0,4.0,74,0.00,,---,0.00,0.00,VWS V14.01,2013-05-15 08:44:00,
2013-05-15 04:49:00,57.0,48.4,30.12,SSW,210,3.0,4.0,73,0.00,,---,0.00,0.00,VWS V14.01,2013-05-15 08:49:00,
2013-05-15 04:54:00,57.2,48.6,30.12,SSW,210,0.0,2.0,73,0.00,,---,0.00,0.00,VWS V14.01,2013-05-15 08:54:00,
2013-05-15 04:59:00,57.2,48.6,30.13,SW,215,2.0,5.0,73,0.00,,---,0.00,0.00,VWS V14.01,2013-05-15 08:59:00,
2013-05-15 05:04:00,57.4,48.5,30.12,SW,217,0.0,5.0,72,0.00,,---,0.00,0.00,VWS V14.01,2013-05-15 09:04:00,
2013-05-15 05:09:00,57.6,48.7,30.12,SW,219,0.0,5.0,72,0.00,,---,0.00,0.00,VWS V14.01,2013-05-15 09:09:00,
2013-05-15 05:14:00,57.7,48.8,30.12,SW,225,3.0,4.0,72,0.00,,---,0.00,0.00,VWS V14.01,2013-05-15 09:14:00,
2013-05-15 05:19:00,57.8,48.8,30.12,SW,224,4.0,6.0,72,0.00,,---,0.00,0.00,VWS V14.01,2013-05-15 09:19:00,
2013-05-15 05:24:00,57.9,48.9,30.12,SW,221,0.0,2.0,72,0.00,,---,0.00,0.00,VWS V14.01,2013-05-15 09:24:00,
2013-05-15 05:29:00,57.8,48.8,30.13,SW,221,0.0,4.0,72,0.00,,---,0.00,0.00,VWS V14.01,2013-05-15 09:29:00,
2013-05-15 05:34:00,57.9,48.6,30.13,SW,221,2.0,5.0,71,0.00,,---,0.00,0.00,VWS V14.01,2013-05-15 09:34:00,
2013-05-15 05:39:00,57.9,48.6,30.13,SW,221,2.0,5.0,71,0.00,,---,0.00,0.00,VWS V14.01,2013-05-15 09:39:00,
2013-05-15 05:45:00,57.8,48.5,30.13,SW,223,4.0,4.0,71,0.00,,---,0.00,0.00,VWS V14.01,2013-05-15 09:45:00,
2013-05-15 05:50:00,57.9,48.6,30.13,SW,223,0.0,4.0,71,0.00,,---,0.00,0.00,VWS V14.01,2013-05-15 09:50:00,
2013-05-15 05:55:00,57.9,48.6,30.13,SW,223,2.0,3.0,71,0.00,,---,0.00,0.00,VWS V14.01,2013-05-15 09:55:00,
2013-05-15 06:00:00,57.9,48.6,30.14,SW,223,3.0,4.0,71,0.00,,---,0.00,0.00,VWS V14.01,2013-05-15 10:00:00,
2013-05-15 06:05:00,57.9,48.6,30.14,SW,223,2.0,3.0,71,0.00,,---,0.00,0.00,VWS V14.01,2013-05-15 10:05:00,
2013-05-15 06:10:00,57.9,48.6,30.14,SW,223,0.0,0.0,71,0.00,,---,0.00,0.00,VWS V14.01,2013-05-15 10:10:00,
2013-05-15 06:15:00,57.8,48.8,30.14,SW,223,0.0,2.0,72,0.00,,---,0.00,0.00,VWS V14.01,2013-05-15 10:15:00,
2013-05-15 06:20:00,57.8,48.8,30.14,SW,223,0.0,4.0,72,0.00,,---,0.00,0.00,VWS V14.01,2013-05-15 10:20:00,
2013-05-15 06:25:00,57.7,48.8,30.14,SW,223,0.0,0.0,72,0.00,,---,0.00,0.00,VWS V14.01,2013-05-15 10:25:00,
2013-05-15 06:30:00,57.7,48.8,30.15,SW,223,0.0,1.0,72,0.00,,---,0.00,7.00,VWS V14.01,2013-05-15 10:30:00,
2013-05-15 06:35:00,57.6,48.7,30.15,SW,223,0.0,3.0,72,0.00,,---,0.00,11.00,VWS V14.01,2013-05-15 10:35:00,
2013-05-15 06:40:00,57.6,48.7,30.15,SW,223,0.0,3.0,72,0.00,,---,0.00,14.00,VWS V14.01,2013-05-15 10:40:00,
2013-05-15 06:45:00,57.6,48.7,30.15,SW,223,3.0,4.0,72,0.00,,---,0.00,18.00,VWS V14.01,2013-05-15 10:45:00,
2013-05-15 06:51:00,57.5,48.9,30.15,SW,223,0.0,4.0,73,0.00,,---,0.00,21.00,VWS V14.01,2013-05-15 10:51:00,
2013-05-15 06:56:00,57.6,49.0,30.16,WSW,252,0.0,1.0,73,0.00,,---,0.00,25.00,VWS V14.01,2013-05-15 10:56:00,
2013-05-15 07:01:00,57.6,49.0,30.16,WSW,252,0.0,3.0,73,0.00,,---,0.00,26.00,VWS V14.01,2013-05-15 11:01:00,
2013-05-15 07:06:00,57.6,49.0,30.16,WSW,252,0.0,3.0,73,0.00,,---,0.00,30.00,VWS V14.01,2013-05-15 11:06:00,
2013-05-15 07:11:00,57.6,49.4,30.16,WSW,250,2.0,4.0,74,0.00,,---,0.00,33.00,VWS V14.01,2013-05-15 11:11:00,
2013-05-15 07:16:00,57.7,49.5,30.16,WSW,237,4.0,7.0,74,0.00,,---,0.00,39.00,VWS V14.01,2013-05-15 11:16:00,
2013-05-15 07:21:00,57.9,49.7,30.16,SW,236,3.0,4.0,74,0.00,,---,0.00,56.00,VWS V14.01,2013-05-15 11:21:00,
2013-05-15 07:26:00,58.1,49.9,30.16,SW,229,5.0,6.0,74,0.00,,---,0.00,42.00,VWS V14.01,2013-05-15 11:26:00,
2013-05-15 07:31:00,58.3,50.4,30.15,SW,229,2.0,5.0,75,0.00,,---,0.00,44.00,VWS V14.01,2013-05-15 11:31:00,
2013-05-15 07:37:00,58.5,50.6,30.15,SW,230,5.0,5.0,75,0.00,,---,0.00,47.00,VWS V14.01,2013-05-15 11:37:00,
2013-05-15 07:42:00,58.8,50.5,30.15,SW,225,4.0,5.0,74,0.00,,---,0.00,51.00,VWS V14.01,2013-05-15 11:42:00,
2013-05-15 07:48:00,59.1,50.8,30.15,SW,229,3.0,7.0,74,0.00,,---,0.00,53.00,VWS V14.01,2013-05-15 11:48:00,
2013-05-15 07:53:00,59.4,50.8,30.15,SW,229,3.0,6.0,73,0.00,,---,0.00,65.00,VWS V14.01,2013-05-15 11:53:00,
2013-05-15 07:58:00,59.6,51.0,30.15,SW,234,6.0,6.0,73,0.00,,---,0.00,69.00,VWS V14.01,2013-05-15 11:58:00,
2013-05-15 08:03:00,59.8,51.1,30.15,SW,233,2.0,6.0,73,0.00,,---,0.00,104.00,VWS V14.01,2013-05-15 12:03:00,
2013-05-15 08:08:00,60.1,51.1,30.15,SW,233,2.0,6.0,72,0.00,,---,0.00,123.00,VWS V14.01,2013-05-15 12:08:00,
2013-05-15 08:13:00,60.5,51.1,30.15,SW,234,6.0,6.0,71,0.00,,---,0.00,315.00,VWS V14.01,2013-05-15 12:13:00,
2013-05-15 08:18:00,61.0,51.5,30.15,SW,224,4.0,8.0,71,0.00,,---,0.00,323.00,VWS V14.01,2013-05-15 12:18:00,
2013-05-15 08:24:00,61.8,51.9,30.15,SW,236,8.0,10.0,70,0.00,,---,0.00,345.00,VWS V14.01,2013-05-15 12:24:00,
2013-05-15 08:29:00,62.6,51.9,30.15,SW,231,4.0,9.0,68,0.00,,---,0.00,360.00,VWS V14.01,2013-05-15 12:29:00,
2013-05-15 08:34:00,63.4,53.1,30.16,WSW,239,4.0,6.0,69,0.00,,---,0.00,374.00,VWS V14.01,2013-05-15 12:34:00,
2013-05-15 08:39:00,64.2,53.0,30.17,West,259,8.0,9.0,67,0.00,,---,0.00,390.00,VWS V14.01,2013-05-15 12:39:00,
2013-05-15 08:44:00,64.9,53.3,30.17,SW,235,0.0,5.0,66,0.00,,---,0.00,406.00,VWS V14.01,2013-05-15 12:44:00,
2013-05-15 08:50:00,65.6,53.5,30.16,WSW,243,9.0,11.0,65,0.00,,---,0.00,422.00,VWS V14.01,2013-05-15 12:50:00,
2013-05-15 08:55:00,66.2,53.7,30.16,SW,236,6.0,10.0,64,0.00,,---,0.00,445.00,VWS V14.01,2013-05-15 12:55:00,
2013-05-15 09:00:00,66.8,54.2,30.16,SW,219,7.0,12.0,64,0.00,,---,0.00,462.00,VWS V14.01,2013-05-15 13:00:00,
2013-05-15 09:05:00,67.3,54.7,30.16,SW,231,5.0,11.0,64,0.00,,---,0.00,478.00,VWS V14.01,2013-05-15 13:05:00,
2013-05-15 09:10:00,67.9,55.3,30.16,SSW,213,4.0,10.0,64,0.00,,---,0.00,494.00,VWS V14.01,2013-05-15 13:10:00,
2013-05-15 09:15:00,68.5,55.4,30.16,SW,225,2.0,10.0,63,0.00,,---,0.00,519.00,VWS V14.01,2013-05-15 13:15:00,
2013-05-15 09:20:00,69.1,56.0,30.16,SW,217,5.0,8.0,63,0.00,,---,0.00,538.00,VWS V14.01,2013-05-15 13:20:00,
2013-05-15 09:26:00,69.7,56.1,30.15,SW,223,4.0,8.0,62,0.00,,---,0.00,554.00,VWS V14.01,2013-05-15 13:26:00,
2013-05-15 09:31:00,70.3,55.8,30.15,SW,227,1.0,11.0,60,0.00,,---,0.00,571.00,VWS V14.01,2013-05-15 13:31:00,
2013-05-15 09:36:00,70.9,56.8,30.15,SW,233,4.0,11.0,61,0.00,,---,0.00,587.00,VWS V14.01,2013-05-15 13:36:00,
2013-05-15 09:41:00,71.4,56.8,30.15,WSW,244,6.0,9.0,60,0.00,,---,0.00,605.00,VWS V14.01,2013-05-15 13:41:00,
2013-05-15 09:46:00,71.9,56.3,30.15,WSW,242,7.0,7.0,58,0.00,,---,0.00,622.00,VWS V14.01,2013-05-15 13:46:00,
2013-05-15 09:51:00,72.4,57.3,30.15,SSW,202,4.0,6.0,59,0.00,,---,0.00,640.00,VWS V14.01,2013-05-15 13:51:00,
2013-05-15 09:56:00,72.9,57.3,30.15,WSW,242,11.0,11.0,58,0.00,,---,0.00,656.00,VWS V14.01,2013-05-15 13:56:00,
2013-05-15 10:01:00,73.5,57.3,30.15,SW,234,10.0,10.0,57,0.00,,---,0.00,671.00,VWS V14.01,2013-05-15 14:01:00,
2013-05-15 10:07:00,74.0,57.3,30.14,SW,230,17.0,17.0,56,0.00,,---,0.00,687.00,VWS V14.01,2013-05-15 14:07:00,
2013-05-15 10:12:00,74.4,57.2,30.14,SW,236,8.0,16.0,55,0.00,,---,0.00,703.00,VWS V14.01,2013-05-15 14:12:00,
2013-05-15 10:17:00,74.6,58.4,30.14,WSW,244,10.0,10.0,57,0.00,,---,0.00,717.00,VWS V14.01,2013-05-15 14:17:00,
2013-05-15 10:22:00,75.0,58.3,30.14,WSW,249,11.0,14.0,56,0.00,,---,0.00,731.00,VWS V14.01,2013-05-15 14:22:00,
2013-05-15 10:27:00,75.3,58.0,30.14,WSW,241,10.0,18.0,55,0.00,,---,0.00,747.00,VWS V14.01,2013-05-15 14:27:00,
2013-05-15 10:32:00,75.7,58.9,30.14,West,261,14.0,14.0,56,0.00,,---,0.00,761.00,VWS V14.01,2013-05-15 14:32:00,
2013-05-15 10:37:00,76.1,58.8,30.13,SW,221,7.0,11.0,55,0.00,,---,0.00,777.00,VWS V14.01,2013-05-15 14:37:00,
2013-05-15 10:43:00,76.4,59.1,30.13,West,275,9.0,13.0,55,0.00,,---,0.00,793.00,VWS V14.01,2013-05-15 14:43:00,
2013-05-15 10:48:00,76.7,59.8,30.13,SW,234,10.0,14.0,56,0.00,,---,0.00,805.00,VWS V14.01,2013-05-15 14:48:00,
2013-05-15 10:53:00,77.0,58.6,30.13,West,260,11.0,18.0,53,0.00,,---,0.00,814.00,VWS V14.01,2013-05-15 14:53:00,
2013-05-15 10:59:00,77.2,59.3,30.13,West,263,12.0,15.0,54,0.00,,---,0.00,828.00,VWS V14.01,2013-05-15 14:59:00,
2013-05-15 11:04:00,77.4,59.0,30.12,WSW,240,15.0,15.0,53,0.00,,---,0.00,840.00,VWS V14.01,2013-05-15 15:04:00,
2013-05-15 11:10:00,77.7,59.2,30.12,WSW,249,9.0,15.0,53,0.00,,---,0.00,854.00,VWS V14.01,2013-05-15 15:10:00,
2013-05-15 11:15:00,78.1,60.1,30.12,West,259,9.0,14.0,54,0.00,,---,0.00,863.00,VWS V14.01,2013-05-15 15:15:00,
2013-05-15 11:21:00,78.6,60.1,30.12,WSW,257,8.0,17.0,53,0.00,,---,0.00,875.00,VWS V14.01,2013-05-15 15:21:00,
2013-05-15 11:26:00,78.9,60.3,30.12,SW,215,6.0,13.0,53,0.00,,---,0.00,886.00,VWS V14.01,2013-05-15 15:26:00,
2013-05-15 11:31:00,79.4,60.3,30.12,WSW,252,10.0,10.0,52,0.00,,---,0.00,896.00,VWS V14.01,2013-05-15 15:31:00,
2013-05-15 11:36:00,79.7,60.0,30.12,SW,229,14.0,14.0,51,0.00,,---,0.00,905.00,VWS V14.01,2013-05-15 15:36:00,
2013-05-15 11:42:00,80.0,60.8,30.12,WSW,246,9.0,11.0,52,0.00,,---,0.00,914.00,VWS V14.01,2013-05-15 15:42:00,
2013-05-15 11:47:00,80.4,61.7,30.12,WSW,247,7.0,10.0,53,0.00,,---,0.00,921.00,VWS V14.01,2013-05-15 15:47:00,
2013-05-15 11:52:00,80.8,61.5,30.11,WSW,246,8.0,13.0,52,0.00,,---,0.00,926.00,VWS V14.01,2013-05-15 15:52:00,
2013-05-15 11:57:00,81.2,60.8,30.11,SW,233,7.0,19.0,50,0.00,,---,0.00,935.00,VWS V14.01,2013-05-15 15:57:00,
2013-05-15 12:03:00,81.5,61.1,30.11,WSW,248,7.0,13.0,50,0.00,,---,0.00,944.00,VWS V14.01,2013-05-15 16:03:00,
2013-05-15 12:08:00,81.8,60.2,30.11,West,267,9.0,12.0,48,0.00,,---,0.00,951.00,VWS V14.01,2013-05-15 16:08:00,
2013-05-15 12:13:00,82.1,61.6,30.11,WSW,252,6.0,14.0,50,0.00,,---,0.00,958.00,VWS V14.01,2013-05-15 16:13:00,
2013-05-15 12:18:00,82.5,62.0,30.11,SSW,199,9.0,14.0,50,0.00,,---,0.00,965.00,VWS V14.01,2013-05-15 16:18:00,
2013-05-15 12:23:00,82.8,62.3,30.10,SW,236,6.0,9.0,50,0.00,,---,0.00,967.00,VWS V14.01,2013-05-15 16:23:00,
2013-05-15 12:28:00,83.0,61.3,30.10,NW,306,1.0,12.0,48,0.00,,---,0.00,972.00,VWS V14.01,2013-05-15 16:28:00,
2013-05-15 12:34:00,83.5,61.8,30.10,SW,234,9.0,14.0,48,0.00,,---,0.00,976.00,VWS V14.01,2013-05-15 16:34:00,
2013-05-15 12:39:00,83.8,61.4,30.10,WNW,288,7.0,16.0,47,0.00,,---,0.00,981.00,VWS V14.01,2013-05-15 16:39:00,
2013-05-15 12:45:00,84.2,61.8,30.10,WSW,252,11.0,16.0,47,0.00,,---,0.00,984.00,VWS V14.01,2013-05-15 16:45:00,
2013-05-15 12:50:00,84.2,61.2,30.09,SW,221,8.0,13.0,46,0.00,,---,0.00,988.00,VWS V14.01,2013-05-15 16:50:00,
2013-05-15 12:55:00,84.6,62.2,30.09,West,267,13.0,15.0,47,0.00,,---,0.00,990.00,VWS V14.01,2013-05-15 16:55:00,
2013-05-15 13:00:00,84.6,61.6,30.09,WSW,255,10.0,14.0,46,0.00,,---,0.00,991.00,VWS V14.01,2013-05-15 17:00:00,
2013-05-15 13:06:00,84.6,61.6,30.09,WSW,257,5.0,11.0,46,0.00,,---,0.00,995.00,VWS V14.01,2013-05-15 17:06:00,
2013-05-15 13:11:00,85.1,61.4,30.08,SW,224,5.0,13.0,45,0.00,,---,0.00,995.00,VWS V14.01,2013-05-15 17:11:00,
2013-05-15 13:16:00,85.4,61.7,30.08,West,259,7.0,17.0,45,0.00,,---,0.00,995.00,VWS V14.01,2013-05-15 17:16:00,
2013-05-15 13:21:00,85.6,61.8,30.08,SW,224,7.0,12.0,45,0.00,,---,0.00,997.00,VWS V14.01,2013-05-15 17:21:00,
2013-05-15 13:26:00,86.0,61.6,30.08,WSW,246,9.0,20.0,44,0.00,,---,0.00,995.00,VWS V14.01,2013-05-15 17:26:00,
2013-05-15 13:31:00,86.0,62.2,30.08,SW,214,9.0,13.0,45,0.00,,---,0.00,993.00,VWS V14.01,2013-05-15 17:31:00,
2013-05-15 13:36:00,86.3,62.5,30.07,WSW,243,8.0,15.0,45,0.00,,---,0.00,995.00,VWS V14.01,2013-05-15 17:36:00,
2013-05-15 13:41:00,86.2,63.0,30.07,SW,218,8.0,13.0,46,0.00,,---,0.00,991.00,VWS V14.01,2013-05-15 17:41:00,
2013-05-15 13:46:00,86.5,62.0,30.07,WSW,246,9.0,14.0,44,0.00,,---,0.00,988.00,VWS V14.01,2013-05-15 17:46:00,
2013-05-15 13:51:00,86.8,62.9,30.07,WSW,238,12.0,12.0,45,0.00,,---,0.00,988.00,VWS V14.01,2013-05-15 17:51:00,
2013-05-15 13:56:00,87.1,63.2,30.06,WSW,244,2.0,3.0,45,0.00,,---,0.00,984.00,VWS V14.01,2013-05-15 17:56:00,
2013-05-15 14:01:00,87.4,63.5,30.06,WSW,237,6.0,6.0,45,0.00,,---,0.00,983.00,VWS V14.01,2013-05-15 18:01:00,
2013-05-15 14:06:00,87.7,63.8,30.06,SW,217,14.0,14.0,45,0.00,,---,0.00,979.00,VWS V14.01,2013-05-15 18:06:00,
2013-05-15 14:12:00,87.7,62.5,30.05,WSW,242,7.0,7.0,43,0.00,,---,0.00,979.00,VWS V14.01,2013-05-15 18:12:00,
2013-05-15 14:17:00,87.6,63.7,30.06,SW,236,5.0,7.0,45,0.00,,---,0.00,972.00,VWS V14.01,2013-05-15 18:17:00,
2013-05-15 14:22:00,87.9,62.6,30.05,WSW,250,10.0,16.0,43,0.00,,---,0.00,967.00,VWS V14.01,2013-05-15 18:22:00,
2013-05-15 14:27:00,87.8,61.2,30.05,WSW,252,8.0,8.0,41,0.00,,---,0.00,962.00,VWS V14.01,2013-05-15 18:27:00,
2013-05-15 14:32:00,88.0,62.7,30.05,WSW,257,7.0,12.0,43,0.00,,---,0.00,956.00,VWS V14.01,2013-05-15 18:32:00,
2013-05-15 14:37:00,88.2,61.5,30.04,WSW,256,6.0,10.0,41,0.00,,---,0.00,935.00,VWS V14.01,2013-05-15 18:37:00,
2013-05-15 14:43:00,88.4,63.7,30.04,SW,221,7.0,9.0,44,0.00,,---,0.00,928.00,VWS V14.01,2013-05-15 18:43:00,
2013-05-15 14:48:00,88.7,64.0,30.04,West,266,4.0,9.0,44,0.00,,---,0.00,940.00,VWS V14.01,2013-05-15 18:48:00,
2013-05-15 14:53:00,88.8,62.1,30.04,West,266,10.0,13.0,41,0.00,,---,0.00,900.00,VWS V14.01,2013-05-15 18:53:00,
2013-05-15 14:58:00,88.8,63.4,30.03,SW,236,7.0,10.0,43,0.00,,---,0.00,891.00,VWS V14.01,2013-05-15 18:58:00,
2013-05-15 15:03:00,89.0,64.3,30.04,WSW,255,7.0,12.0,44,0.00,,---,0.00,893.00,VWS V14.01,2013-05-15 19:03:00,
2013-05-15 15:09:00,89.4,62.6,30.03,WSW,251,7.0,10.0,41,0.00,,---,0.00,844.00,VWS V14.01,2013-05-15 19:09:00,
2013-05-15 15:15:00,89.6,62.8,30.03,SW,227,7.0,13.0,41,0.00,,---,0.00,838.00,VWS V14.01,2013-05-15 19:15:00,
2013-05-15 15:20:00,89.4,64.6,30.03,WSW,238,4.0,10.0,44,0.00,,---,0.00,860.00,VWS V14.01,2013-05-15 19:20:00,
2013-05-15 15:25:00,89.3,61.8,30.02,WSW,257,8.0,13.0,40,0.00,,---,0.00,809.00,VWS V14.01,2013-05-15 19:25:00,
2013-05-15 15:30:00,89.4,64.0,30.02,SSW,201,8.0,11.0,43,0.00,,---,0.00,807.00,VWS V14.01,2013-05-15 19:30:00,
2013-05-15 15:36:00,89.5,62.7,30.02,WSW,243,5.0,12.0,41,0.00,,---,0.00,805.00,VWS V14.01,2013-05-15 19:36:00,
2013-05-15 15:41:00,89.7,64.2,30.02,SW,232,1.0,10.0,43,0.00,,---,0.00,824.00,VWS V14.01,2013-05-15 19:41:00,
2013-05-15 15:46:00,89.9,64.4,30.02,WSW,240,5.0,13.0,43,0.00,,---,0.00,807.00,VWS V14.01,2013-05-15 19:46:00,
2013-05-15 15:51:00,90.1,62.5,30.02,WSW,242,7.0,12.0,40,0.00,,---,0.00,802.00,VWS V14.01,2013-05-15 19:51:00,
2013-05-15 15:56:00,90.2,63.3,30.01,WSW,250,6.0,13.0,41,0.00,,---,0.00,742.00,VWS V14.01,2013-05-15 19:56:00,
2013-05-15 16:01:00,90.2,62.6,30.01,WSW,258,9.0,15.0,40,0.00,,---,0.00,742.00,VWS V14.01,2013-05-15 20:01:00,
2013-05-15 16:06:00,90.1,63.2,30.01,SW,215,10.0,13.0,41,0.01,,---,0.01,747.00,VWS V14.01,2013-05-15 20:06:00,
2013-05-15 16:11:00,93.6,63.4,30.01,SW,215,9.0,14.0,37,0.05,,---,0.05,744.00,VWS V14.01,2013-05-15 20:11:00,
2013-05-15 16:16:00,95.1,64.8,30.01,WSW,257,9.0,11.0,37,0.06,,---,0.06,698.00,VWS V14.01,2013-05-15 20:16:00,
2013-05-15 16:21:00,94.4,63.4,30.01,West,260,9.0,14.0,36,0.07,,---,0.07,679.00,VWS V14.01,2013-05-15 20:21:00,
2013-05-15 16:26:00,95.2,64.1,30.01,WSW,238,13.0,13.0,36,0.07,,---,0.07,686.00,VWS V14.01,2013-05-15 20:26:00,
2013-05-15 16:31:00,96.5,62.7,30.00,WSW,247,0.0,13.0,33,0.07,,---,0.07,682.00,VWS V14.01,2013-05-15 20:31:00,
2013-05-15 16:36:00,96.5,62.7,30.00,WSW,247,0.0,0.0,33,0.07,,---,0.07,682.00,VWS V14.01,2013-05-15 20:36:00,
2013-05-15 16:41:00,96.5,62.7,30.00,WSW,247,0.0,0.0,33,0.07,,---,0.07,682.00,VWS V14.01,2013-05-15 20:41:00,
2013-05-15 16:46:00,95.7,63.7,30.00,SW,234,7.0,10.0,35,0.07,,---,0.07,650.00,VWS V14.01,2013-05-15 20:46:00,
2013-05-15 16:51:00,90.9,63.3,30.00,SSW,207,8.0,14.0,40,0.07,,---,0.07,636.00,VWS V14.01,2013-05-15 20:51:00,
2013-05-15 16:56:00,89.8,63.0,30.00,WSW,244,9.0,15.0,41,0.07,,---,0.07,621.00,VWS V14.01,2013-05-15 20:56:00,
2013-05-15 17:01:00,89.7,62.9,30.00,SSW,203,7.0,13.0,41,0.07,,---,0.07,606.00,VWS V14.01,2013-05-15 21:01:00,
2013-05-15 17:06:00,89.9,63.1,29.99,SW,230,6.0,12.0,41,0.07,,---,0.07,589.00,VWS V14.01,2013-05-15 21:06:00,
2013-05-15 17:11:00,89.6,62.8,29.99,WSW,251,6.0,14.0,41,0.06,,---,0.07,568.00,VWS V14.01,2013-05-15 21:11:00,
2013-05-15 17:16:00,89.5,63.4,29.99,SW,225,7.0,10.0,42,0.02,,---,0.07,557.00,VWS V14.01,2013-05-15 21:16:00,
2013-05-15 17:21:00,89.3,62.5,29.99,WSW,245,7.0,15.0,41,0.01,,---,0.07,541.00,VWS V14.01,2013-05-15 21:21:00,
2013-05-15 17:26:00,89.2,62.4,29.99,WSW,246,10.0,13.0,41,0.00,,---,0.07,527.00,VWS V14.01,2013-05-15 21:26:00,
2013-05-15 17:31:00,89.2,64.5,29.99,WSW,257,11.0,11.0,44,0.00,,---,0.07,510.00,VWS V14.01,2013-05-15 21:31:00,
2013-05-15 17:36:00,89.1,62.4,29.99,SW,216,7.0,14.0,41,0.00,,---,0.07,492.00,VWS V14.01,2013-05-15 21:36:00,
2013-05-15 17:41:00,89.0,63.0,29.99,WSW,239,8.0,13.0,42,0.00,,---,0.07,471.00,VWS V14.01,2013-05-15 21:41:00,
2013-05-15 17:46:00,88.9,62.9,29.98,SW,229,9.0,11.0,42,0.00,,---,0.07,455.00,VWS V14.01,2013-05-15 21:46:00,
2013-05-15 17:51:00,88.9,63.5,29.98,SW,222,6.0,11.0,43,0.00,,---,0.07,438.00,VWS V14.01,2013-05-15 21:51:00,
2013-05-15 17:56:00,88.8,62.8,29.98,SSW,202,3.0,5.0,42,0.00,,---,0.07,418.00,VWS V14.01,2013-05-15 21:56:00,
2013-05-15 18:01:00,88.5,62.5,29.98,WSW,248,7.0,9.0,42,0.00,,---,0.07,408.00,VWS V14.01,2013-05-15 22:01:00,
2013-05-15 18:07:00,88.4,63.1,29.98,WSW,252,7.0,7.0,43,0.00,,---,0.07,381.00,VWS V14.01,2013-05-15 22:07:00,
2013-05-15 18:12:00,88.3,63.0,29.98,WSW,245,9.0,9.0,43,0.00,,---,0.07,362.00,VWS V14.01,2013-05-15 22:12:00,
2013-05-15 18:17:00,88.3,63.7,29.98,WSW,247,2.0,8.0,44,0.00,,---,0.07,345.00,VWS V14.01,2013-05-15 22:17:00,
2013-05-15 18:23:00,88.1,62.8,29.98,WSW,241,7.0,11.0,43,0.00,,---,0.07,327.00,VWS V14.01,2013-05-15 22:23:00,
2013-05-15 18:28:00,88.0,62.7,29.98,SSW,209,12.0,14.0,43,0.00,,---,0.07,306.00,VWS V14.01,2013-05-15 22:28:00,
2013-05-15 18:33:00,87.8,62.5,29.98,SW,232,5.0,9.0,43,0.00,,---,0.07,285.00,VWS V14.01,2013-05-15 22:33:00,
2013-05-15 18:38:00,87.7,63.1,29.98,WSW,238,0.0,9.0,44,0.00,,---,0.07,267.00,VWS V14.01,2013-05-15 22:38:00,
2013-05-15 18:43:00,87.5,62.9,29.98,WSW,240,8.0,10.0,44,0.00,,---,0.07,248.00,VWS V14.01,2013-05-15 22:43:00,
2013-05-15 18:48:00,87.3,64.0,29.98,SW,232,4.0,12.0,46,0.00,,---,0.07,230.00,VWS V14.01,2013-05-15 22:48:00,
2013-05-15 18:53:00,87.0,62.5,29.98,SW,223,5.0,12.0,44,0.00,,---,0.07,211.00,VWS V14.01,2013-05-15 22:53:00,
2013-05-15 18:58:00,86.8,62.3,29.98,SSW,211,8.0,10.0,44,0.00,,---,0.07,193.00,VWS V14.01,2013-05-15 22:58:00,
2013-05-15 19:03:00,86.5,62.7,29.98,SW,220,6.0,6.0,45,0.00,,---,0.07,174.00,VWS V14.01,2013-05-15 23:03:00,
2013-05-15 19:09:00,86.3,62.5,29.98,SW,218,0.0,8.0,45,0.00,,---,0.07,149.00,VWS V14.01,2013-05-15 23:09:00,
2013-05-15 19:14:00,86.1,62.3,29.98,SW,225,5.0,9.0,45,0.00,,---,0.07,130.00,VWS V14.01,2013-05-15 23:14:00,
2013-05-15 19:19:00,85.7,62.6,29.98,SW,225,3.0,7.0,46,0.00,,---,0.07,111.00,VWS V14.01,2013-05-15 23:19:00,
2013-05-15 19:25:00,85.4,62.3,29.98,SW,222,7.0,7.0,46,0.00,,---,0.07,91.00,VWS V14.01,2013-05-15 23:25:00,
2013-05-15 19:30:00,85.2,62.7,29.98,SW,228,2.0,8.0,47,0.00,,---,0.07,76.00,VWS V14.01,2013-05-15 23:30:00,
2013-05-15 19:35:00,84.8,62.3,29.98,SW,225,0.0,5.0,47,0.00,,---,0.07,62.00,VWS V14.01,2013-05-15 23:35:00,
2013-05-15 19:41:00,84.3,62.5,29.98,SW,221,1.0,5.0,48,0.00,,---,0.07,47.00,VWS V14.01,2013-05-15 23:41:00,
2013-05-15 19:46:00,83.9,63.8,29.98,SW,218,0.0,0.0,51,0.00,,---,0.07,37.00,VWS V14.01,2013-05-15 23:46:00,
2013-05-15 19:51:00,83.3,62.2,29.98,SW,215,3.0,3.0,49,0.00,,---,0.07,28.00,VWS V14.01,2013-05-15 23:51:00,
2013-05-15 19:56:00,82.9,62.9,29.99,SW,215,3.0,3.0,51,0.00,,---,0.07,21.00,VWS V14.01,2013-05-15 23:56:00,
2013-05-15 20:01:00,82.5,62.0,29.99,SW,225,4.0,4.0,50,0.00,,---,0.07,18.00,VWS V14.01,2013-05-16 00:01:00,
2013-05-15 20:07:00,82.0,62.7,29.99,SW,225,0.0,0.0,52,0.00,,---,0.07,12.00,VWS V14.01,2013-05-16 00:07:00,
2013-05-15 20:12:00,81.0,62.8,29.99,SW,225,0.0,0.0,54,0.00,,---,0.07,9.00,VWS V14.01,2013-05-16 00:12:00,
2013-05-15 20:17:00,80.2,62.1,29.99,SW,219,2.0,3.0,54,0.00,,---,0.07,5.00,VWS V14.01,2013-05-16 00:17:00,
2013-05-15 20:22:00,79.9,62.3,29.99,SW,217,1.0,2.0,55,0.00,,---,0.07,0.00,VWS V14.01,2013-05-16 00:22:00,
2013-05-15 20:27:00,79.7,62.1,29.99,SW,217,0.0,1.0,55,0.00,,---,0.07,0.00,VWS V14.01,2013-05-16 00:27:00,
2013-05-15 20:32:00,79.5,61.4,29.99,SW,217,0.0,0.0,54,0.00,,---,0.07,0.00,VWS V14.01,2013-05-16 00:32:00,
2013-05-15 20:38:00,79.0,62.0,29.99,SW,217,2.0,3.0,56,0.00,,---,0.07,0.00,VWS V14.01,2013-05-16 00:38:00,
2013-05-15 20:44:00,78.5,61.5,29.99,SW,217,0.0,4.0,56,0.00,,---,0.07,0.00,VWS V14.01,2013-05-16 00:44:00,
2013-05-15 20:49:00,78.3,61.3,29.99,SW,217,0.0,0.0,56,0.00,,---,0.07,0.00,VWS V14.01,2013-05-16 00:49:00,
2013-05-15 20:54:00,78.1,61.6,30.00,SW,217,3.0,3.0,57,0.00,,---,0.07,0.00,VWS V14.01,2013-05-16 00:54:00,
2013-05-15 20:59:00,77.9,61.5,30.00,SW,217,0.0,3.0,57,0.00,,---,0.07,0.00,VWS V14.01,2013-05-16 00:59:00,
2013-05-15 21:04:00,77.8,61.4,30.00,SW,219,0.0,3.0,57,0.00,,---,0.07,0.00,VWS V14.01,2013-05-16 01:04:00,
2013-05-15 21:09:00,77.5,61.1,30.00,SW,219,0.0,3.0,57,0.00,,---,0.07,0.00,VWS V14.01,2013-05-16 01:09:00,
2013-05-15 21:14:00,77.0,61.1,30.00,SW,218,0.0,1.0,58,0.00,,---,0.07,0.00,VWS V14.01,2013-05-16 01:14:00,
2013-05-15 21:19:00,76.6,60.7,30.00,SW,218,3.0,4.0,58,0.00,,---,0.07,0.00,VWS V14.01,2013-05-16 01:19:00,
2013-05-15 21:24:00,76.5,60.6,30.00,SW,216,0.0,1.0,58,0.00,,---,0.07,0.00,VWS V14.01,2013-05-16 01:24:00,
2013-05-15 21:29:00,76.5,61.1,30.00,SSW,213,5.0,5.0,59,0.00,,---,0.07,0.00,VWS V14.01,2013-05-16 01:29:00,
2013-05-15 21:34:00,76.5,60.6,30.00,SSW,213,2.0,4.0,58,0.00,,---,0.07,0.00,VWS V14.01,2013-05-16 01:34:00,
2013-05-15 21:39:00,76.3,60.9,30.00,SSW,213,0.0,1.0,59,0.00,,---,0.07,0.00,VWS V14.01,2013-05-16 01:39:00,
2013-05-15 21:45:00,76.1,61.2,30.01,SSW,213,0.0,3.0,60,0.00,,---,0.07,0.00,VWS V14.01,2013-05-16 01:45:00,
2013-05-15 21:50:00,75.5,61.1,30.01,SSW,213,0.0,3.0,61,0.00,,---,0.07,0.00,VWS V14.01,2013-05-16 01:50:00,
2013-05-15 21:55:00,74.9,61.0,30.00,SSW,213,0.0,0.0,62,0.00,,---,0.07,0.00,VWS V14.01,2013-05-16 01:55:00,
2013-05-15 22:00:00,74.9,60.6,30.00,SSW,213,1.0,6.0,61,0.00,,---,0.07,0.00,VWS V14.01,2013-05-16 02:00:00,
2013-05-15 22:06:00,75.1,60.8,30.00,SW,214,2.0,4.0,61,0.00,,---,0.07,0.00,VWS V14.01,2013-05-16 02:06:00,
2013-05-15 22:11:00,75.1,60.8,30.01,SW,214,0.0,4.0,61,0.00,,---,0.07,0.00,VWS V14.01,2013-05-16 02:11:00,
2013-05-15 22:16:00,75.1,60.8,30.01,SW,214,0.0,4.0,61,0.00,,---,0.07,0.00,VWS V14.01,2013-05-16 02:16:00,
2013-05-15 22:21:00,74.9,60.6,30.01,SW,214,0.0,1.0,61,0.00,,---,0.07,0.00,VWS V14.01,2013-05-16 02:21:00,
2013-05-15 22:26:00,74.7,60.4,30.01,SW,214,0.0,5.0,61,0.00,,---,0.07,0.00,VWS V14.01,2013-05-16 02:26:00,
2013-05-15 22:31:00,74.8,60.5,30.01,SW,214,0.0,4.0,61,0.00,,---,0.07,0.00,VWS V14.01,2013-05-16 02:31:00,
2013-05-15 22:37:00,74.5,60.2,30.01,SW,214,2.0,4.0,61,0.00,,---,0.07,0.00,VWS V14.01,2013-05-16 02:37:00,
2013-05-15 22:42:00,74.4,60.5,30.01,SW,214,0.0,0.0,62,0.00,,---,0.07,0.00,VWS V14.01,2013-05-16 02:42:00,
2013-05-15 22:47:00,74.1,60.3,30.01,SW,214,0.0,0.0,62,0.00,,---,0.07,0.00,VWS V14.01,2013-05-16 02:47:00,
2013-05-15 22:53:00,73.8,60.4,30.01,SW,214,2.0,4.0,63,0.00,,---,0.07,0.00,VWS V14.01,2013-05-16 02:53:00,
2013-05-15 22:59:00,73.5,60.2,30.01,SW,215,2.0,5.0,63,0.00,,---,0.07,0.00,VWS V14.01,2013-05-16 02:59:00,
2013-05-15 23:04:00,73.3,60.4,30.01,SW,215,3.0,4.0,64,0.00,,---,0.07,0.00,VWS V14.01,2013-05-16 03:04:00,
2013-05-15 23:09:00,73.2,60.3,30.01,SW,215,0.0,3.0,64,0.00,,---,0.07,0.00,VWS V14.01,2013-05-16 03:09:00,
2013-05-15 23:14:00,72.8,60.4,30.01,SW,215,1.0,1.0,65,0.00,,---,0.07,0.00,VWS V14.01,2013-05-16 03:14:00,
2013-05-15 23:19:00,72.6,60.2,30.01,SW,215,0.0,1.0,65,0.00,,---,0.07,0.00,VWS V14.01,2013-05-16 03:19:00,
2013-05-15 23:24:00,72.2,60.2,30.01,SW,215,0.0,0.0,66,0.00,,---,0.07,0.00,VWS V14.01,2013-05-16 03:24:00,
2013-05-15 23:29:00,71.9,60.4,30.01,SW,215,0.0,0.0,67,0.00,,---,0.07,0.00,VWS V14.01,2013-05-16 03:29:00,
2013-05-15 23:35:00,71.6,60.1,30.01,SW,215,0.0,0.0,67,0.00,,---,0.07,0.00,VWS V14.01,2013-05-16 03:35:00,
2013-05-15 23:40:00,71.4,59.9,30.01,SW,215,2.0,3.0,67,0.00,,---,0.07,0.00,VWS V14.01,2013-05-16 03:40:00,
2013-05-15 23:45:00,71.3,59.8,30.01,SW,215,0.0,1.0,67,0.00,,---,0.07,0.00,VWS V14.01,2013-05-16 03:45:00,
2013-05-15 23:50:00,71.3,60.2,30.01,SW,215,2.0,3.0,68,0.00,,---,0.07,0.00,VWS V14.01,2013-05-16 03:50:00,
2013-05-15 23:55:00,71.0,59.9,30.01,SW,215,0.0,1.0,68,0.00,,---,0.07,0.00,VWS V14.01,2013-05-16 03:55:00,